Theta_e
350 349 348 346 342 341 340 340 340 339 337 334 334 334 331 328 329 330 327 325 324 322 320 318 316 316 317 318 319 320 322 327 334 339 339 339 338 337 336 336 336 336 336 336 337 337 337 339 339 339 340 340 341 341 340 340 340 341 341 341 341 341 340 340 340 340 338 337 338 338 338 338 337 337 336 336 336 336 337 336 337 337 338 339 340
349 348 348 346 341 339 340 340 340 339 336 334 334 334 330 329 332 330 328 326 324 323 320 318 316 317 318 320 320 321 323 327 332 337 339 338 337 337 336 335 335 335 336 336 336 337 338 339 339 340 341 341 342 342 340 339 339 339 340 341 341 340 340 340 339 338 335 331 330 330 334 336 336 337 337 337 336 336 336 336 336 337 338 338 339
347 348 348 345 341 339 339 339 340 338 336 334 335 333 329 331 333 331 329 327 325 324 320 318 316 317 319 321 321 322 324 326 332 338 339 337 338 338 338 336 336 335 335 336 336 337 338 338 339 340 341 342 342 342 341 340 340 339 339 339 339 339 339 339 338 337 335 333 330 327 329 331 334 336 336 337 337 336 336 336 336 336 337 337 337
347 347 346 344 340 339 339 339 339 338 336 334 335 333 329 331 333 331 330 328 327 324 321 318 317 319 320 322 322 323 325 326 332 338 338 337 338 339 338 338 337 336 335 336 336 337 337 338 338 340 340 341 341 341 341 340 340 340 340 339 339 338 338 337 336 335 333 333 332 329 329 331 333 335 335 335 336 335 336 336 335 335 335 336 335
345 344 343 341 339 339 339 339 339 337 335 335 336 332 328 332 333 333 331 329 327 325 322 320 319 320 322 323 324 326 327 326 331 338 339 338 338 338 338 338 338 338 336 336 335 336 336 337 337 338 339 339 340 340 340 340 340 340 340 340 340 339 338 337 336 334 332 331 331 331 331 333 334 334 335 335 334 334 334 334 334 334 334 334 334
343 342 342 340 339 340 339 340 339 337 335 335 336 332 332 333 334 333 332 330 328 325 323 322 322 322 324 326 328 330 328 326 333 338 338 337 338 338 338 338 338 338 337 336 335 335 335 335 335 336 337 338 339 339 340 340 341 340 340 340 340 339 339 338 337 335 333 331 330 332 334 334 334 335 335 334 333 333 333 333 333 333 333 332 333
343 341 341 342 341 341 341 340 339 337 335 336 335 334 336 335 334 334 332 330 327 324 324 325 325 325 327 329 332 333 328 329 336 338 336 336 338 338 338 338 338 337 336 335 335 333 331 332 334 335 336 336 337 339 339 339 340 340 340 340 340 339 339 337 337 336 333 331 330 332 335 335 334 334 334 334 333 333 333 333 333 332 332 331 331
342 340 342 343 343 342 341 340 339 337 335 336 335 333 334 333 334 334 332 330 328 326 327 329 330 330 331 332 335 334 330 332 337 338 335 335 337 338 338 338 338 337 337 336 335 333 329 329 334 335 334 335 336 337 338 338 338 338 337 336 335 335 335 334 336 337 333 330 330 331 335 336 335 334 333 334 333 333 333 333 332 332 332 331 330
341 342 343 342 342 341 341 341 339 336 335 337 335 332 331 332 334 334 334 332 332 331 331 332 335 336 335 335 336 335 333 334 338 338 332 333 338 337 336 336 337 337 338 337 336 335 328 326 333 333 334 334 334 335 335 336 335 335 333 331 331 334 334 333 334 335 332 329 330 332 334 335 335 334 331 331 331 330 331 331 331 331 331 331 330
343 345 343 340 342 341 341 340 338 337 336 337 335 331 330 332 334 335 336 335 335 334 332 334 337 338 337 338 337 336 335 335 337 338 332 333 337 336 335 336 337 336 337 337 336 335 327 324 331 332 333 333 333 333 333 333 333 331 330 331 333 334 334 334 334 334 332 330 330 331 332 333 333 333 332 331 330 330 330 330 331 331 331 331 331
345 347 344 342 343 342 341 340 339 337 336 337 336 332 330 332 334 335 336 335 334 333 333 335 337 337 338 338 338 338 336 335 336 337 333 333 335 335 336 337 338 337 336 336 335 332 325 322 328 331 332 332 332 332 332 332 330 330 331 333 332 332 333 333 333 331 331 330 330 330 330 331 331 332 331 330 330 330 331 330 330 330 331 331 331
346 345 344 344 345 343 342 341 339 337 337 338 336 333 331 331 333 333 334 333 333 332 333 336 337 336 338 338 337 338 336 335 336 336 334 334 336 336 338 338 338 337 336 335 333 329 322 318 323 329 331 331 331 331 331 330 329 331 333 334 332 331 331 330 329 327 327 328 329 330 330 330 330 330 330 329 329 330 330 329 329 329 330 330 330
345 344 343 343 345 345 343 341 339 337 338 338 336 334 332 330 330 331 332 332 332 331 333 336 336 335 337 337 337 337 337 336 335 336 335 336 338 338 339 339 338 336 335 334 332 329 325 318 318 325 330 330 330 330 329 329 331 332 334 334 333 332 331 329 327 325 327 329 329 329 329 330 330 330 330 330 330 330 330 329 329 329 329 330 330
343 344 343 342 345 346 343 341 339 337 338 338 337 336 334 331 329 330 331 332 332 331 331 334 335 334 336 337 336 336 337 336 335 335 334 336 338 339 339 338 337 336 335 333 332 330 328 320 315 321 327 328 328 327 329 331 332 333 334 334 333 332 331 329 327 327 328 329 329 329 329 330 330 330 330 330 330 330 330 329 329 329 329 330 330
339 343 345 345 347 346 344 341 339 339 338 339 338 337 337 334 330 329 331 332 332 330 329 332 334 333 334 335 335 336 337 336 335 335 335 336 338 339 339 338 337 336 334 333 332 331 329 322 314 317 322 324 325 328 331 332 333 333 335 334 333 332 330 328 327 327 327 327 329 329 329 329 330 329 329 329 329 329 329 329 329 329 329 330 330
340 344 347 347 347 347 345 343 341 340 339 339 339 339 338 337 333 330 330 332 331 329 329 332 332 332 334 335 336 337 336 335 335 335 336 337 338 339 339 338 337 335 334 332 331 330 329 322 315 315 320 323 328 331 332 333 333 334 335 335 333 331 329 327 325 325 326 326 328 329 328 329 329 329 329 329 329 329 329 329 329 329 329 328 328
345 347 348 347 347 347 346 344 342 341 340 341 341 340 340 339 336 331 331 332 331 331 331 331 331 334 337 337 337 337 336 334 334 335 335 336 338 339 339 339 336 334 333 332 332 330 328 322 316 319 324 328 331 332 333 334 334 335 335 335 333 331 330 327 325 324 324 325 327 328 329 329 330 329 330 330 329 329 329 329 328 327 328 328 329
347 348 348 347 347 347 346 344 343 342 342 342 342 342 341 340 336 332 332 333 334 333 332 330 332 338 340 339 337 337 336 334 334 334 335 337 338 339 339 338 336 334 333 332 331 330 328 322 319 324 328 330 332 332 334 335 335 335 334 334 332 332 332 330 328 324 322 324 327 328 329 329 329 330 330 329 329 329 329 329 329 328 329 329 330
347 348 348 347 347 347 346 345 344 343 343 342 342 342 342 340 335 333 334 335 335 334 332 331 336 340 341 339 337 338 337 335 335 334 335 337 337 338 338 338 336 334 333 333 332 330 329 324 320 325 329 331 332 334 335 335 335 335 333 332 332 333 332 331 328 324 323 325 327 328 328 328 329 329 329 329 329 328 328 328 329 329 330 330 330
347 347 347 348 348 347 347 346 345 344 344 343 342 342 342 338 334 335 336 336 336 334 332 333 338 340 340 339 338 339 338 336 336 334 335 337 338 338 337 337 335 334 333 333 332 331 330 326 322 324 328 331 333 335 335 335 335 335 334 333 333 333 332 330 327 324 324 326 328 328 329 329 328 329 329 329 328 328 327 327 327 328 329 329 329
346 346 347 347 347 348 347 346 345 345 344 344 343 342 341 337 336 337 337 337 336 335 333 334 339 340 340 339 339 340 338 337 336 334 336 337 338 338 337 337 335 334 333 333 333 332 331 329 325 322 326 331 334 336 335 335 336 336 334 333 333 333 332 329 325 323 322 325 328 329 329 329 329 329 329 328 327 327 327 327 327 327 327 327 328
344 345 345 345 347 347 346 346 346 346 344 344 343 342 340 338 337 339 339 337 336 336 335 336 340 341 340 339 340 339 338 337 335 334 336 337 338 338 337 337 336 335 333 333 333 333 331 331 328 324 325 332 335 335 335 335 336 337 336 334 333 333 331 328 325 322 321 325 329 329 329 329 329 329 328 327 327 327 327 327 327 327 326 326 326
343 343 344 344 345 346 345 345 345 345 344 343 342 341 340 340 340 340 339 338 337 338 336 337 340 341 339 339 338 338 337 337 335 335 335 336 337 338 338 337 336 335 333 333 333 333 332 331 330 328 330 333 334 334 335 335 335 335 335 334 333 332 331 328 326 323 324 326 328 328 329 329 329 329 328 327 327 327 327 326 326 326 326 325 324
341 342 343 344 344 345 344 344 344 343 343 343 342 341 341 341 341 340 338 338 339 339 338 338 339 339 338 337 336 335 336 336 336 336 334 335 336 337 337 337 336 334 333 333 333 333 332 331 331 331 332 333 332 332 333 333 333 334 334 334 333 332 331 329 326 325 326 327 327 326 326 328 328 328 328 328 327 326 326 326 326 326 325 324 324
340 341 342 343 343 343 343 343 343 342 342 342 341 341 341 341 341 339 337 338 339 340 339 338 339 338 337 336 333 333 334 335 336 336 335 334 335 336 337 336 335 334 334 333 333 333 332 332 331 330 331 331 331 331 331 331 332 333 333 333 333 332 331 328 326 327 328 328 328 327 325 327 329 329 329 328 327 326 326 326 325 325 325 324 324
339 340 341 341 341 341 342 341 340 339 340 340 339 341 341 341 341 339 337 339 339 340 340 338 338 337 336 335 333 334 334 334 335 334 334 334 334 335 335 336 335 334 334 333 333 332 332 332 332 332 333 333 333 333 333 332 332 334 334 333 332 333 331 328 328 328 329 329 329 328 327 328 329 329 328 327 326 326 326 326 325 325 324 324 324
339 340 340 340 340 340 339 338 338 337 338 338 338 340 342 341 339 338 338 340 340 340 340 339 338 337 336 336 335 336 334 334 335 334 333 332 333 333 333 333 334 335 334 333 333 333 332 332 332 334 334 334 334 334 335 334 334 334 334 333 332 332 331 330 329 328 328 329 329 329 328 329 329 328 328 327 326 325 325 325 324 325 325 324 324
339 339 339 339 339 339 338 337 337 337 337 337 338 340 341 339 338 339 339 340 341 341 340 339 338 337 337 337 337 337 336 336 336 335 333 332 332 332 331 331 331 333 334 333 333 332 332 331 331 332 333 334 333 333 335 336 335 334 333 332 332 332 332 330 329 328 327 326 326 325 325 327 328 328 327 327 327 326 325 325 325 325 325 325 324
339 339 339 339 339 338 337 338 338 338 338 338 338 340 339 338 338 339 339 341 342 341 340 338 337 337 337 339 339 338 338 338 337 337 335 334 334 333 332 332 330 331 332 331 332 332 332 331 331 331 332 333 333 332 333 335 335 333 332 332 332 332 332 330 329 329 326 322 321 323 325 327 328 327 327 327 327 327 326 326 326 325 325 324 323
338 339 338 339 339 338 338 339 340 340 340 339 339 339 339 339 339 339 340 341 341 339 338 338 337 337 338 339 339 338 338 338 338 338 336 335 336 334 333 333 332 332 330 328 330 332 332 331 331 331 333 333 333 332 330 332 334 332 331 332 333 333 333 331 330 328 326 323 321 324 328 328 327 327 327 327 327 327 327 326 325 325 324 324 323
339 339 338 338 339 339 339 339 340 341 340 339 339 339 340 340 340 339 340 340 339 337 338 339 339 338 338 339 339 339 338 338 338 338 337 336 336 336 335 334 333 332 329 329 330 331 331 332 332 333 333 333 332 332 330 331 332 331 331 332 333 333 333 331 330 328 326 324 322 324 326 325 326 328 328 328 327 327 327 326 326 325 324 324 324
340 339 338 338 339 339 339 339 340 341 340 339 340 340 340 339 339 340 340 339 338 338 338 339 339 339 340 339 339 339 338 338 338 338 337 337 337 337 336 335 334 332 331 332 333 332 332 333 334 333 333 332 331 331 331 330 330 330 331 333 333 334 333 332 330 328 326 324 322 323 324 325 327 328 329 328 325 326 326 326 327 326 325 325 323
340 340 339 338 339 339 339 338 339 341 340 339 340 339 339 338 338 339 339 338 339 339 339 339 338 339 340 339 339 339 338 338 338 338 338 337 337 337 335 335 335 333 332 333 334 334 333 333 334 333 333 333 332 331 330 330 330 329 330 332 334 334 333 332 330 328 327 326 324 323 324 326 328 329 328 326 324 326 327 327 327 326 325 324 323
341 340 340 339 339 339 339 338 339 340 339 337 338 339 337 336 336 336 336 337 338 338 339 339 338 338 339 339 339 338 338 338 338 338 338 337 337 336 334 333 335 334 332 334 335 335 334 334 334 333 333 333 332 331 330 330 330 330 331 333 334 334 334 333 330 328 328 327 326 325 324 325 326 327 327 327 327 328 328 326 325 325 325 324 324
342 341 340 339 338 338 338 338 338 339 338 335 336 337 336 335 336 336 335 336 337 337 338 338 338 338 338 338 339 338 337 337 337 337 337 337 336 335 334 333 335 334 333 334 335 335 334 334 334 333 333 333 333 331 330 330 330 331 331 333 335 334 334 333 330 329 328 328 328 327 326 325 324 325 326 328 327 327 327 325 323 323 323 324 324
341 341 339 339 339 339 339 338 338 338 337 336 335 337 337 335 335 336 335 336 336 337 337 337 338 338 337 337 338 338 336 336 336 337 336 336 335 335 334 334 334 334 334 335 335 335 334 333 333 333 333 333 332 331 331 331 331 331 331 333 335 334 334 333 331 330 328 328 328 328 328 327 326 325 325 326 326 325 326 325 324 324 324 323 324
341 340 339 338 339 339 339 338 338 337 337 337 336 336 336 335 334 336 336 336 336 338 338 338 338 337 337 337 337 337 336 335 335 335 335 335 335 334 334 334 334 333 334 336 336 335 333 332 333 333 333 333 332 331 332 332 331 332 331 332 334 335 334 334 333 331 329 328 328 329 329 329 329 327 325 325 325 325 325 325 326 326 326 326 325
341 340 339 338 339 339 339 339 338 337 336 336 336 335 335 334 334 336 336 336 337 337 337 337 338 338 338 337 336 336 336 335 335 334 334 335 335 334 334 334 335 334 335 337 336 334 333 333 333 333 332 332 332 332 333 333 332 332 331 332 334 335 334 334 333 333 331 331 330 329 329 329 329 328 327 326 326 325 326 327 328 328 328 328 328
341 340 339 339 339 339 339 339 337 336 336 336 336 335 334 335 334 335 335 336 338 338 337 337 338 338 338 337 337 337 336 335 335 334 335 335 335 334 335 334 335 335 336 337 336 335 334 334 333 332 332 332 332 332 333 334 333 332 332 332 333 334 334 334 333 333 332 332 331 330 330 330 329 328 328 328 328 327 327 328 329 329 328 328 329
340 339 339 339 338 338 339 338 336 336 336 336 336 336 335 335 335 335 336 336 337 337 337 338 338 338 338 338 338 337 336 335 335 335 335 335 334 335 334 333 334 335 335 336 336 335 335 334 333 332 332 331 331 332 333 334 333 333 333 333 333 333 333 333 333 332 332 332 332 331 330 331 330 329 329 328 328 328 328 328 329 329 329 329 329
339 339 339 339 338 338 338 337 336 336 336 336 337 336 335 336 336 335 335 336 337 337 337 337 337 337 337 338 338 337 336 335 336 335 334 334 334 335 334 333 334 335 335 335 335 335 335 335 332 331 332 331 331 331 332 333 333 332 332 332 332 332 332 332 331 331 332 332 331 331 331 331 330 329 329 328 327 327 328 328 328 328 328 329 329
338 338 339 339 338 338 338 338 337 337 337 337 338 337 336 336 336 336 335 335 336 336 336 336 336 336 336 337 337 338 336 336 335 335 334 334 335 335 335 335 335 335 335 334 335 334 334 334 332 331 331 331 331 331 332 332 332 330 330 331 331 331 331 330 331 331 331 331 331 331 331 331 330 330 329 328 327 326 327 327 328 328 327 328 329
338 338 339 338 338 337 337 337 338 338 337 337 338 337 336 336 336 335 335 335 335 335 335 336 336 336 336 336 337 337 336 335 335 335 334 334 335 335 335 335 335 335 334 333 334 333 333 333 332 331 330 330 332 332 332 331 331 330 330 331 331 331 331 330 330 330 330 330 330 330 331 331 330 330 329 329 328 328 328 329 329 327 326 328 328
337 337 338 338 337 337 337 337 338 338 337 337 338 337 336 336 336 335 335 335 335 335 335 336 336 336 336 336 337 337 336 335 335 335 334 334 334 335 335 335 335 334 332 332 333 333 333 333 331 331 331 330 331 332 332 331 331 331 330 331 330 330 332 331 329 329 329 329 330 330 330 330 330 330 329 329 329 329 329 329 329 327 325 326 327
336 337 337 337 337 338 338 337 338 338 338 338 338 337 338 336 335 335 335 334 334 334 335 335 336 336 336 336 337 336 336 335 335 334 334 333 334 335 335 335 334 333 332 332 333 333 334 333 331 331 331 331 331 331 331 331 331 330 330 331 330 331 331 330 329 329 329 330 330 329 330 330 330 330 329 329 330 330 330 330 329 328 326 326 326
336 336 337 337 337 338 338 338 338 338 338 338 338 337 338 337 335 333 334 334 334 334 334 335 335 335 336 336 336 336 336 335 334 334 334 334 334 334 334 334 333 332 332 332 333 333 333 333 331 331 332 332 332 331 331 331 331 331 330 330 331 332 330 329 330 330 329 329 329 329 330 330 330 329 329 329 329 329 329 329 330 329 327 328 327
334 334 335 335 336 337 338 338 338 338 338 338 338 338 337 337 335 334 334 334 334 333 334 334 335 335 335 335 336 336 335 335 334 334 335 335 334 334 334 333 333 332 332 333 333 333 333 332 331 331 332 332 333 332 331 331 331 331 331 330 331 332 330 328 329 330 330 330 329 329 329 329 329 329 329 329 329 329 328 328 329 329 328 328 328
332 333 333 334 334 335 337 338 338 338 338 338 337 337 337 337 336 335 334 333 333 334 334 334 334 335 335 335 335 335 335 335 335 335 335 334 334 334 333 333 333 333 333 333 333 333 333 332 332 332 332 332 333 333 332 331 331 331 331 331 332 331 329 328 328 329 330 331 330 329 329 329 329 329 329 329 328 328 328 328 328 328 328 328 328
331 332 333 334 334 335 337 337 338 337 338 338 338 337 336 336 334 333 333 333 332 333 334 334 334 334 333 333 334 335 335 335 336 335 334 334 334 334 333 333 333 333 333 333 334 333 333 333 333 333 332 333 333 333 332 331 331 331 332 332 332 330 329 329 329 328 329 330 331 329 328 328 329 329 329 329 329 328 328 329 328 328 328 328 328
331 332 333 333 334 336 338 338 337 337 338 338 337 336 334 334 332 330 331 331 330 331 333 334 334 333 333 332 332 334 335 335 335 335 334 334 334 333 333 333 333 334 334 333 333 333 333 333 334 333 332 332 333 333 332 331 331 331 331 332 331 330 329 329 328 328 328 329 330 329 328 328 328 328 329 329 329 328 328 328 328 329 328 328 328
332 333 333 333 333 334 336 338 338 337 338 338 337 335 333 333 333 331 331 330 328 330 333 333 333 333 333 333 332 334 335 335 335 335 334 333 333 333 333 333 334 334 334 334 333 333 333 333 333 333 332 332 332 332 332 332 331 331 331 332 331 330 330 329 328 328 328 327 329 329 328 328 328 328 328 328 328 328 328 328 328 328 328 328 328
Wind_Speed
18 18 18 17 19 19 19 20 20 20 20 19 19 18 19 22 24 23 23 22 21 21 22 22 22 22 21 21 21 21 21 22 24 24 24 24 23 23 22 22 22 22 21 21 20 20 19 18 18 18 18 19 18 19 20 21 21 21 21 20 21 22 21 22 22 21 20 19 18 18 18 18 19 18 19 20 21 22 21 21 22 22 21 20 21
19 19 17 17 18 19 20 20 20 20 19 19 18 18 20 23 24 23 23 22 21 21 21 22 22 22 21 21 20 20 21 22 23 24 24 23 23 23 23 22 21 21 21 21 20 20 19 18 18 19 19 19 20 20 21 22 22 22 22 21 21 22 21 21 21 21 20 20 19 19 18 18 19 19 18 19 20 21 21 21 21 21 20 19 20
22 20 18 18 19 19 20 21 21 20 19 19 18 18 20 23 24 23 22 22 21 21 21 21 22 21 21 20 20 20 20 22 24 24 23 23 24 24 23 22 21 21 21 20 20 20 19 17 17 18 18 19 20 20 21 22 22 22 22 22 22 22 21 21 20 19 18 18 19 19 19 19 20 19 18 18 19 20 20 20 20 19 19 19 19
23 22 21 21 20 21 22 23 23 22 21 19 19 19 21 24 24 23 22 22 21 21 20 21 21 21 20 20 20 20 20 22 24 23 23 23 23 23 22 22 21 21 21 20 20 19 19 18 16 16 18 19 19 20 21 21 21 22 22 21 22 21 21 20 19 19 17 17 17 19 20 20 19 18 17 18 18 19 18 18 18 18 18 18 19
29 27 26 24 23 23 25 26 25 24 22 20 19 19 21 24 23 23 22 22 21 20 20 20 20 20 20 20 19 20 21 22 24 24 23 22 23 22 22 22 22 21 21 20 20 19 17 17 16 16 17 18 19 19 20 21 21 20 19 19 19 19 19 19 18 18 16 16 17 19 20 20 19 18 17 18 18 18 17 16 17 17 17 18 18
34 31 28 26 25 25 26 26 25 24 23 21 19 20 22 23 23 22 21 21 21 20 20 20 20 20 20 20 20 20 21 23 24 23 22 22 22 22 21 21 21 21 20 19 18 18 16 17 19 18 18 18 19 18 19 21 20 19 17 15 15 15 16 16 16 16 15 15 17 20 20 19 19 18 17 17 17 17 16 15 15 16 16 17 18
33 32 28 27 25 25 25 25 24 24 23 21 20 20 21 22 23 21 21 20 20 21 20 20 20 20 20 20 20 20 21 23 23 22 22 22 22 21 21 20 19 19 18 18 17 16 16 19 20 20 19 19 19 19 19 20 20 19 17 15 13 11 10 10 11 13 15 15 16 18 19 18 18 17 17 16 16 16 16 16 16 16 16 16 17
32 31 28 28 26 26 25 25 25 24 24 22 21 21 21 22 23 22 21 20 20 20 19 19 19 20 20 20 20 19 21 23 22 21 21 22 22 21 20 19 18 17 18 17 17 15 15 19 21 19 19 18 18 19 18 18 17 16 16 14 11 7 5 5 6 9 13 15 16 17 17 17 17 17 16 15 16 15 16 16 16 16 16 16 17
33 31 29 29 27 27 26 26 26 26 25 23 23 22 22 22 22 22 21 20 19 19 19 18 18 19 20 20 19 19 21 23 22 19 19 21 22 19 18 18 17 17 17 17 16 14 15 18 21 20 18 17 17 17 16 15 14 14 13 12 11 10 9 9 11 12 14 14 15 16 16 17 17 16 14 14 14 14 15 16 16 16 16 16 16
32 30 30 29 28 28 28 28 27 27 26 24 23 22 22 22 22 22 20 19 19 18 18 18 18 19 19 19 18 19 21 22 21 18 19 20 20 18 18 18 17 16 16 16 14 13 14 17 21 20 17 16 16 15 14 13 13 12 12 12 13 17 17 17 17 16 15 15 16 16 16 16 15 15 14 14 14 15 15 15 15 16 16 16 16
30 29 29 28 28 28 28 28 28 28 27 25 23 22 23 23 22 21 20 20 19 18 18 18 19 19 18 18 18 19 20 20 19 18 18 19 19 18 17 17 16 15 15 14 13 12 13 16 20 19 17 15 14 13 12 12 11 12 14 14 15 18 18 17 16 15 14 16 17 17 16 15 15 15 15 15 15 15 14 14 15 16 15 16 16
30 30 28 27 27 27 28 28 28 28 27 26 24 24 24 23 22 21 21 20 19 19 18 19 20 20 18 17 19 20 19 19 19 17 17 18 18 17 16 17 16 15 13 13 12 11 13 15 17 18 16 14 13 12 11 11 11 13 15 16 16 16 16 14 14 15 16 18 19 18 16 15 15 15 15 15 15 15 14 14 15 15 15 15 16
31 31 29 28 26 27 28 28 28 28 28 27 26 25 24 23 22 22 22 20 19 19 19 20 21 20 18 18 19 19 19 19 18 17 16 17 18 16 16 16 15 14 12 12 11 12 13 14 16 17 16 14 12 11 11 12 13 14 16 17 18 16 14 14 15 18 20 21 20 18 17 16 16 15 15 15 15 15 15 15 15 15 15 15 15
32 31 30 29 27 27 27 27 27 28 29 28 27 25 24 23 22 22 22 20 20 19 19 20 20 19 18 18 19 19 19 18 17 16 16 16 17 16 16 15 13 12 11 11 11 12 12 13 15 17 17 15 13 12 12 12 13 15 15 17 18 16 14 14 17 19 20 21 20 19 18 17 16 16 16 15 15 15 15 15 15 15 14 14 14
33 31 29 28 28 27 26 27 26 28 29 28 27 26 24 23 22 22 23 22 20 19 19 20 20 19 18 18 18 19 19 18 16 15 16 16 15 15 15 14 12 11 11 11 12 12 12 13 15 18 17 15 14 13 13 12 14 14 13 16 17 15 14 15 17 18 19 20 21 19 18 17 16 16 16 16 16 15 15 15 14 14 14 14 14
31 30 29 28 27 26 25 26 26 27 28 27 27 26 25 23 23 24 25 23 21 21 21 21 21 20 19 18 18 19 18 17 16 15 16 16 14 13 13 13 12 11 11 12 12 13 13 13 16 19 18 16 15 13 12 13 14 14 12 15 16 14 13 14 16 17 18 19 21 20 18 17 16 16 16 15 16 15 15 14 14 13 13 14 14
27 27 27 27 27 26 26 26 26 27 27 27 26 26 25 24 24 25 26 24 23 23 23 23 22 21 19 19 18 18 18 17 16 15 15 16 14 12 12 11 11 11 12 12 13 14 14 14 17 20 19 18 16 13 12 13 15 13 14 16 15 13 12 13 15 16 17 19 21 20 18 17 16 16 16 15 15 15 15 14 14 13 13 14 14
25 25 25 26 26 26 26 26 27 27 27 26 25 24 24 24 25 25 25 24 23 23 24 24 24 22 19 18 18 18 17 17 15 15 16 15 13 12 11 11 11 12 12 12 13 14 15 15 18 20 19 18 15 13 13 14 15 14 15 16 15 13 11 12 14 14 16 18 20 19 18 17 16 16 15 15 15 15 15 14 15 14 14 13 14
23 23 24 25 25 25 26 26 27 27 26 25 24 23 22 23 24 24 24 23 22 23 24 25 24 22 20 19 18 17 17 16 15 15 16 14 13 12 11 10 10 12 13 12 13 14 15 16 18 19 19 17 15 14 13 15 16 15 16 16 13 12 11 12 13 13 15 17 18 18 17 16 16 15 15 15 15 15 15 14 14 14 13 13 13
22 22 23 23 23 24 25 26 26 26 25 25 24 23 22 23 24 23 22 21 22 23 23 23 22 21 20 19 17 17 17 16 15 15 16 14 13 12 11 9 10 12 13 12 13 14 15 16 17 18 18 17 15 14 13 14 16 15 17 15 13 12 11 11 12 13 15 16 17 17 16 15 16 15 15 14 14 14 14 14 13 12 12 12 12
21 22 21 22 21 22 25 25 25 25 24 23 23 23 23 23 23 22 21 21 22 23 22 21 21 20 20 19 18 18 17 16 15 15 16 14 13 12 10 9 10 12 13 13 13 13 14 15 16 18 18 17 16 15 12 13 14 12 13 14 12 10 10 11 12 13 14 16 17 17 15 15 15 15 14 14 14 14 14 14 13 12 11 11 11
20 21 21 21 20 22 25 24 23 23 23 22 22 23 23 22 22 21 20 21 22 22 21 21 20 19 19 18 18 18 17 16 16 16 16 15 13 11 10 10 10 11 13 13 13 13 14 14 15 17 19 17 16 14 11 12 11 9 9 11 11 10 10 11 12 13 14 16 17 16 15 14 14 14 14 13 13 14 14 14 13 12 11 11 10
19 20 20 20 20 22 23 22 21 20 20 21 22 22 22 22 21 21 21 22 22 22 22 21 21 20 19 18 17 16 16 16 15 16 15 15 13 11 10 10 10 11 12 13 13 13 14 14 15 17 18 17 14 12 11 11 11 9 9 11 11 11 11 11 11 12 14 16 16 15 15 14 14 14 14 14 13 13 13 13 13 12 11 10 10
18 18 19 19 20 21 20 19 19 19 19 20 21 21 22 22 21 21 22 22 22 22 22 22 21 20 19 19 17 16 15 15 15 15 14 14 14 13 10 10 10 11 12 13 13 13 13 15 15 17 17 15 12 10 10 9 9 9 9 10 11 11 10 10 10 12 14 14 13 13 15 15 14 13 13 13 13 12 13 12 12 12 11 11 11
16 17 18 18 19 19 19 18 18 19 19 20 21 21 22 23 22 22 23 22 22 22 22 22 21 20 19 19 18 16 15 14 14 15 15 14 15 15 13 11 11 11 12 12 13 12 13 14 15 16 15 13 11 9 8 6 5 7 7 7 8 9 9 10 11 13 14 13 12 11 13 14 13 13 13 12 12 12 12 12 12 12 11 11 11
17 16 17 17 17 18 18 18 19 20 20 21 21 22 23 24 24 23 23 22 22 23 22 22 22 20 20 19 19 17 15 15 15 15 16 16 16 17 15 13 11 11 11 12 13 13 12 14 15 15 14 12 10 8 6 4 3 4 5 5 7 9 9 10 12 12 13 12 12 10 12 13 13 12 12 12 11 12 13 12 12 12 12 12 11
17 16 16 15 16 17 18 20 20 21 22 22 22 23 24 25 24 23 23 23 22 23 23 23 22 21 20 19 20 19 17 17 16 15 15 16 16 16 13 12 12 12 11 11 13 13 13 14 14 14 12 10 7 5 5 4 2 2 4 6 7 9 9 11 12 12 12 12 11 10 11 13 12 12 11 11 11 11 12 12 12 12 12 11 11
17 16 15 15 17 19 20 22 22 23 22 22 22 24 25 25 24 23 22 22 22 23 24 23 21 21 21 19 19 19 19 19 17 15 14 14 14 13 11 10 12 13 13 12 13 14 13 13 13 12 10 7 4 4 7 7 5 4 4 6 9 10 10 11 12 12 12 12 11 10 11 13 12 11 11 11 11 11 11 11 11 12 11 11 11
17 17 16 17 19 21 23 24 24 23 22 21 22 23 23 24 23 22 22 22 23 23 24 23 22 21 21 19 18 19 19 19 17 16 15 14 13 12 11 10 11 13 14 13 13 15 14 12 11 10 9 6 4 4 6 8 8 5 5 7 9 12 12 12 12 12 12 12 12 11 12 12 11 10 10 11 10 10 10 10 11 11 10 11 11
19 18 19 20 21 23 25 25 24 22 21 21 21 22 22 23 22 21 22 22 23 23 23 23 22 22 21 20 19 19 19 18 17 16 16 15 13 13 12 11 10 12 13 13 14 16 14 12 11 10 9 7 5 4 5 7 9 7 6 8 10 13 13 12 12 12 12 12 12 13 12 11 11 11 10 10 10 10 10 10 10 10 9 10 10
21 21 22 23 24 24 25 24 22 20 21 21 22 22 21 20 18 20 21 22 23 23 23 22 22 22 22 21 20 19 18 16 16 17 17 16 15 15 14 12 11 12 12 12 13 14 12 10 10 9 9 7 5 5 5 7 9 9 9 10 12 14 13 13 12 12 13 13 13 13 13 12 12 12 10 10 10 10 9 9 9 9 9 9 8
23 24 25 25 25 24 23 23 22 21 21 21 21 21 20 18 18 21 22 22 23 24 25 22 21 22 21 21 20 19 18 16 17 18 17 17 16 15 15 14 12 13 14 12 11 11 11 9 9 9 8 7 6 6 6 7 8 9 12 13 13 14 14 13 13 13 13 13 13 14 13 13 12 12 10 9 9 10 9 8 9 8 8 8 7
23 24 24 25 25 24 23 23 23 22 21 21 20 18 18 18 18 21 21 22 22 23 24 23 22 22 21 20 19 18 17 16 17 18 17 17 16 15 14 13 15 15 16 13 10 10 10 10 11 10 9 8 8 8 8 8 9 10 12 14 15 15 15 14 13 13 13 13 13 13 13 13 12 11 10 8 9 10 9 8 8 7 7 6 7
23 23 24 24 24 24 24 25 25 23 22 23 22 19 16 16 16 17 18 17 18 19 20 21 21 22 20 20 19 18 17 16 18 18 18 17 16 15 12 12 16 17 16 14 12 12 13 13 14 12 10 9 8 9 10 10 11 11 13 15 15 16 15 13 13 14 13 13 13 13 13 12 11 11 9 8 9 10 8 7 7 7 7 6 7
23 24 24 24 24 25 26 27 27 27 28 27 25 20 16 16 14 14 14 12 14 17 17 18 19 19 19 19 19 18 17 16 18 18 17 17 15 15 15 14 16 17 17 16 14 15 16 15 14 13 11 10 9 10 11 11 13 12 13 15 15 15 15 14 14 14 13 13 12 12 12 11 10 10 10 9 9 10 9 7 8 9 9 8 8
22 23 23 24 25 25 27 29 31 32 30 26 24 19 15 18 17 15 16 14 15 18 18 19 19 19 19 19 19 19 18 18 18 18 17 17 16 16 18 17 16 17 18 16 14 15 16 15 14 12 11 9 9 11 11 11 12 11 12 15 15 15 15 15 14 13 13 12 12 12 11 10 10 10 11 10 10 10 9 8 9 10 11 10 9
22 22 23 25 25 25 28 31 33 32 26 20 20 18 16 19 20 19 19 18 18 20 20 19 19 19 19 19 19 19 19 18 19 18 17 17 17 17 18 17 16 17 17 14 14 15 15 14 14 11 10 10 12 12 11 11 11 10 11 14 15 15 15 15 13 12 12 12 12 12 11 10 9 9 10 10 10 10 10 8 8 8 8 9 9
22 22 22 24 25 26 30 32 30 26 21 18 19 20 20 21 21 23 22 20 20 21 20 19 19 21 20 19 19 19 19 17 18 19 18 18 18 18 19 17 16 16 16 14 13 14 13 12 13 13 11 14 16 13 10 10 11 12 12 13 14 14 14 14 13 12 12 11 12 12 12 10 10 10 10 10 10 10 9 8 6 7 6 6 7
22 22 22 23 26 29 31 29 25 22 19 19 20 22 23 23 23 24 24 21 21 20 20 21 21 21 21 20 19 19 19 18 18 18 18 18 18 19 19 17 17 17 16 14 12 13 12 10 12 14 14 16 16 14 13 13 13 13 13 12 13 14 14 13 12 12 12 12 12 12 11 10 9 9 10 10 10 10 9 7 6 6 6 7 7
22 23 24 25 28 29 28 25 24 24 22 21 21 21 23 24 24 25 25 23 22 21 22 23 22 21 20 20 20 19 19 19 18 18 19 19 19 20 19 18 18 17 16 15 14 13 13 12 13 16 17 16 14 15 16 16 16 14 13 12 11 12 12 11 11 11 11 11 12 13 13 11 10 9 9 9 10 10 9 7 6 7 7 7 6
22 24 27 29 30 30 27 25 25 27 27 25 23 22 23 24 25 27 25 23 23 22 21 22 21 21 20 19 20 20 20 19 19 19 19 20 20 20 19 19 18 16 16 16 15 14 14 13 16 19 18 18 18 17 18 19 17 12 11 11 9 8 8 8 9 9 9 9 11 13 14 13 11 10 9 9 10 9 9 8 7 7 7 7 6
24 26 29 29 29 29 28 27 27 28 28 27 25 24 24 25 27 28 26 23 22 22 21 21 21 20 20 20 21 21 21 20 19 19 19 20 20 19 19 18 17 16 15 16 15 15 16 16 18 21 19 20 22 21 21 18 13 11 11 9 7 7 6 6 8 8 8 8 9 11 13 13 13 13 11 9 9 8 8 9 8 7 6 6 6
26 27 29 27 26 27 27 29 30 30 29 28 27 27 27 26 25 23 22 21 21 20 19 20 20 20 20 21 22 23 23 21 20 19 19 19 19 19 18 17 16 17 16 17 16 16 18 17 18 22 20 20 20 22 23 17 13 15 12 6 3 4 4 4 6 7 7 8 9 10 11 11 13 13 13 11 9 9 9 9 8 7 7 7 7
26 27 27 26 25 25 25 28 30 30 30 29 28 29 29 27 23 17 17 18 18 18 17 16 19 20 20 21 22 23 23 22 21 20 19 19 20 19 18 17 17 17 16 17 17 18 19 18 19 23 23 21 19 21 22 15 16 19 10 3 2 2 1 2 4 4 5 7 8 10 10 10 12 12 12 11 10 10 10 10 9 8 8 8 8
27 28 28 27 25 24 24 26 29 30 30 30 29 28 27 26 22 16 14 14 13 15 17 17 18 20 20 21 21 22 22 22 22 20 19 20 21 19 17 16 17 17 15 16 17 18 19 19 20 23 23 23 21 23 22 15 17 19 11 6 4 1 2 4 5 3 4 7 7 8 8 9 10 10 10 10 10 10 10 10 10 9 9 8 8
26 26 26 26 24 23 23 25 29 30 30 30 28 27 27 26 21 17 16 15 14 15 19 20 20 20 21 21 20 20 21 21 21 21 20 21 21 18 16 16 17 16 15 14 16 18 19 19 21 21 21 23 22 24 23 17 18 16 10 8 4 2 6 9 5 1 3 7 6 6 8 9 10 9 10 11 12 10 9 11 11 11 10 9 8
16 16 19 23 23 20 21 24 28 30 30 29 28 28 27 25 22 20 19 18 17 17 18 19 20 20 19 20 20 19 19 20 20 20 20 20 19 17 16 16 16 15 14 14 15 17 18 19 19 19 19 21 22 24 23 19 19 15 11 9 4 4 12 14 7 3 3 4 6 7 8 9 10 9 10 11 12 10 9 10 10 10 10 9 9
8 6 8 17 21 18 19 24 26 27 28 29 29 29 28 26 23 19 17 17 17 17 16 15 17 17 17 18 19 19 19 20 19 18 18 17 16 15 15 16 15 14 14 16 15 16 17 17 17 17 17 19 22 24 22 21 22 16 11 10 7 6 15 15 11 9 5 2 4 5 7 9 10 10 10 10 11 11 10 9 9 9 10 9 9
18 17 12 10 14 15 17 21 22 24 25 26 28 27 26 24 20 16 16 15 15 14 15 14 15 16 15 16 17 18 19 18 18 16 15 15 15 14 15 16 15 15 15 16 16 16 16 16 16 16 18 20 21 21 20 23 23 18 12 10 7 11 14 11 13 13 7 4 3 3 5 8 8 10 10 9 9 9 10 10 10 10 9 10 10
7 10 13 12 11 13 16 18 18 20 23 23 24 23 20 19 16 15 16 15 14 13 14 15 15 15 14 14 16 18 19 17 16 15 14 14 14 15 16 16 16 16 16 16 16 16 16 15 15 15 17 18 19 18 18 21 21 18 15 12 11 15 13 8 12 13 8 5 3 4 7 7 6 8 9 9 9 8 9 9 9 10 10 10 11
8 5 5 6 8 12 12 14 15 16 19 21 21 20 19 18 18 18 18 18 16 15 13 16 16 15 15 15 15 18 19 17 15 14 13 14 15 15 16 16 17 17 16 16 15 16 16 15 15 15 15 15 17 17 16 18 18 17 16 15 15 19 16 11 16 17 11 7 5 5 8 8 8 8 8 9 9 8 8 8 9 10 11 11 11
Wind_Direction
131 133 141 145 147 149 147 148 147 147 145 143 141 138 138 136 136 134 132 130 126 125 124 125 125 123 120 116 112 109 105 104 103 102 100 99 97 96 94 93 94 96 100 99 98 97 96 94 92 91 89 90 91 93 97 99 99 98 96 94 94 95 93 91 90 87 86 86 84 84 85 85 85 84 85 84 83 82 80 79 79 77 74 73 73
133 134 142 146 151 153 151 151 150 149 147 146 142 139 138 137 136 134 133 130 128 125 124 126 126 124 121 118 115 111 108 106 104 103 102 101 99 96 93 93 94 97 101 101 101 100 98 96 93 92 91 93 94 93 97 99 97 96 95 93 92 93 91 89 88 87 87 87 86 87 88 88 87 84 83 82 81 79 77 77 76 75 74 73 72
132 138 147 150 154 155 155 155 154 153 150 149 143 142 139 138 137 136 135 132 130 126 125 125 126 126 122 119 115 113 110 108 106 105 104 103 100 97 95 92 93 96 101 103 103 104 100 97 95 95 94 96 95 94 97 98 97 96 96 94 91 90 88 87 85 85 85 84 84 86 87 87 86 85 84 82 80 77 75 75 75 75 74 73 73
139 147 155 157 159 158 159 159 158 156 153 152 146 144 142 142 140 139 137 134 131 127 127 125 127 126 123 120 116 114 111 111 109 107 106 105 103 99 97 95 94 95 99 103 104 105 104 104 102 98 98 99 98 98 99 98 98 98 96 94 92 89 87 85 83 81 79 79 80 82 84 84 83 84 85 83 82 80 78 76 76 77 76 74 74
155 159 162 162 164 161 161 161 159 157 156 154 149 145 145 145 143 141 138 135 133 130 128 126 127 126 123 119 116 115 112 114 112 110 110 109 107 103 100 97 97 96 97 100 104 107 110 117 116 107 103 103 101 100 102 102 99 98 94 93 92 90 87 84 82 81 79 81 84 85 86 86 85 83 84 83 84 86 84 79 76 76 76 74 74
161 161 164 165 165 161 161 161 160 158 157 155 149 145 144 145 144 142 140 137 135 132 130 128 127 125 122 119 117 114 112 116 116 115 115 113 109 106 103 101 100 99 98 98 101 106 110 122 123 119 114 110 108 103 104 106 106 103 97 94 90 88 82 76 79 81 80 82 88 90 90 90 88 84 83 83 84 87 86 85 80 76 75 74 74
159 158 164 165 163 160 160 161 160 158 157 155 148 143 142 145 147 144 143 141 137 135 132 129 127 125 122 120 119 115 115 118 118 119 119 116 112 109 107 106 105 102 101 100 100 101 108 123 126 124 120 116 115 113 111 109 109 106 101 97 91 88 81 76 79 79 77 80 84 89 91 91 89 86 85 83 84 85 85 85 83 80 76 76 76
156 159 163 162 162 160 161 162 161 160 158 156 150 147 147 149 150 149 147 143 139 136 133 131 127 126 125 123 121 117 118 120 121 123 122 119 114 112 111 110 109 105 103 102 101 100 107 124 130 127 124 121 120 119 118 114 110 106 101 90 77 80 92 103 112 100 87 82 85 88 91 92 91 89 87 84 84 85 86 85 83 82 79 79 81
157 160 162 163 163 161 162 163 164 163 160 158 154 152 153 154 154 152 148 143 139 136 135 133 129 127 128 126 123 121 121 124 126 126 124 119 117 118 118 113 111 108 104 102 103 103 109 125 134 131 128 126 124 123 120 117 113 105 92 74 70 90 106 116 127 124 104 92 95 93 90 90 90 89 88 85 84 87 90 89 86 85 83 82 84
157 159 162 164 164 163 163 164 165 165 162 160 156 155 156 156 155 152 146 142 139 139 141 137 132 131 131 128 125 125 126 128 129 128 122 121 122 120 117 113 110 108 105 106 104 104 111 126 136 135 132 131 127 124 121 118 109 95 76 71 90 103 109 115 121 120 110 105 104 97 89 86 86 88 88 87 88 89 90 91 90 87 86 85 85
157 159 162 163 163 165 163 164 165 164 163 161 158 157 158 158 157 153 148 147 146 147 145 140 137 136 133 130 130 130 130 131 132 130 122 123 124 118 115 113 110 109 108 109 105 105 108 121 137 140 137 135 131 126 122 114 99 84 75 86 107 110 112 117 117 114 112 111 107 101 96 91 90 90 91 91 90 92 91 91 90 88 87 85 86
157 160 162 161 163 165 163 164 164 164 164 162 161 159 160 161 160 157 154 154 153 153 149 144 141 139 136 134 136 135 134 133 136 134 126 125 124 120 120 117 115 117 116 112 108 104 103 112 132 144 143 139 135 128 118 103 90 81 82 100 117 115 113 112 107 107 109 110 109 106 104 99 94 93 95 95 92 93 93 92 91 90 90 88 88
159 161 162 161 163 165 165 165 165 166 166 164 163 161 162 164 164 161 159 159 158 156 152 148 145 142 139 139 142 140 138 138 139 139 133 129 126 126 124 120 121 123 119 112 108 102 101 108 123 141 146 142 137 126 111 98 88 81 86 107 122 120 113 105 102 107 110 110 109 106 104 100 97 97 98 97 94 92 92 95 95 93 93 93 93
161 162 162 163 164 166 167 167 168 168 167 166 164 164 165 166 166 164 163 162 160 159 155 151 148 145 142 142 146 144 143 143 142 142 138 133 130 129 126 124 124 122 115 108 105 100 100 107 119 135 143 142 134 119 108 96 84 79 88 111 123 122 114 106 106 110 112 110 107 105 103 101 100 99 98 97 95 95 94 95 96 95 94 94 94
162 162 162 162 162 165 169 170 170 170 169 168 167 167 167 167 166 166 166 164 163 162 157 154 152 149 146 145 146 145 147 147 144 144 141 137 135 133 129 129 127 120 114 109 105 102 102 107 119 131 139 137 126 116 105 90 80 75 89 118 127 124 115 110 110 112 113 112 110 107 104 103 102 101 100 98 98 97 97 97 98 98 95 91 91
162 162 160 160 162 165 169 171 172 171 171 170 170 170 169 168 167 168 168 166 165 162 160 159 157 152 147 145 146 147 149 150 148 148 145 142 143 140 137 135 128 120 116 111 106 104 104 109 122 131 135 131 121 112 98 87 78 74 96 125 131 122 113 109 110 110 110 113 113 110 107 106 104 103 102 101 101 99 97 96 95 94 93 94 93
159 159 158 160 163 166 170 172 173 173 173 173 173 173 172 172 171 171 169 167 164 162 164 162 158 152 148 146 148 150 151 152 150 152 150 146 148 145 142 138 127 121 117 113 108 108 107 111 125 132 133 129 120 109 98 86 73 78 108 129 133 123 112 105 104 106 107 111 111 109 109 109 107 105 104 103 102 101 99 97 95 94 96 102 101
154 156 158 162 165 168 172 172 173 173 173 174 175 176 174 174 173 172 169 167 164 163 164 160 156 153 150 149 152 154 153 153 151 155 155 151 153 149 145 139 126 123 120 115 112 112 111 116 129 134 134 129 121 112 101 84 72 88 117 129 132 123 113 104 102 104 108 112 113 115 114 112 110 108 106 105 105 104 101 98 99 98 98 104 104
152 156 158 163 167 170 173 172 174 173 173 174 175 176 174 174 172 171 168 165 164 163 162 159 156 154 151 150 155 157 155 153 152 159 161 155 156 155 152 142 127 127 125 119 117 118 114 119 132 138 137 132 123 115 102 84 79 101 125 131 129 121 113 104 101 107 112 115 117 117 114 111 110 109 108 108 108 108 106 103 101 98 96 100 102
154 159 159 164 168 171 172 172 175 174 173 174 174 175 173 173 172 170 168 166 164 162 160 158 156 154 151 152 156 159 157 155 153 161 165 160 159 158 157 145 130 131 129 124 121 123 120 121 134 143 142 136 127 117 102 88 84 106 131 134 129 120 110 103 104 110 114 115 114 113 112 113 113 113 112 111 110 108 108 108 106 103 100 100 102
158 163 164 167 169 170 171 172 175 175 175 174 174 174 173 174 172 170 169 168 165 162 160 157 156 154 153 154 157 162 162 159 157 163 166 165 163 159 159 148 135 135 134 130 127 127 127 125 133 145 147 139 130 118 103 91 85 100 129 135 129 119 108 103 105 110 116 116 114 114 116 117 117 116 115 114 113 110 108 108 108 107 106 104 103
160 165 168 172 171 169 171 173 172 173 175 175 175 174 174 175 172 172 170 170 167 163 162 160 158 156 156 157 160 165 166 164 163 165 169 170 168 164 166 154 140 140 139 137 132 131 134 132 132 142 147 141 131 120 106 91 78 81 118 136 133 122 114 107 103 109 115 116 115 117 118 116 117 117 116 116 115 114 113 112 112 109 109 112 111
163 165 170 176 176 171 172 173 169 170 174 176 176 175 177 176 174 174 171 170 169 167 166 165 163 160 160 161 163 168 170 169 169 170 170 171 171 174 173 157 146 146 145 143 139 135 136 137 135 139 143 140 130 119 112 95 74 74 114 139 136 124 115 106 106 109 111 115 120 124 123 121 120 120 118 118 118 118 116 115 115 112 110 110 111
168 167 170 176 179 176 173 172 169 170 174 177 178 178 181 180 177 177 175 172 172 172 171 169 168 166 164 163 162 167 173 171 171 174 173 171 170 176 181 164 153 151 150 150 147 140 137 139 140 142 143 141 133 123 120 106 85 83 107 134 134 125 113 108 110 111 113 117 123 128 130 129 126 123 121 121 122 121 119 116 116 114 111 107 107
171 171 172 174 177 178 174 171 172 175 177 181 182 183 185 184 182 181 179 174 175 177 175 174 172 170 168 165 161 164 173 172 173 175 175 174 170 176 186 176 162 155 154 156 154 147 140 139 142 145 145 143 140 133 128 116 107 107 110 128 135 130 120 116 114 115 120 120 124 125 125 128 126 123 123 123 124 124 121 118 116 114 111 109 107
176 176 174 173 175 175 175 174 178 183 184 187 187 188 188 188 186 184 181 179 180 181 179 178 175 173 170 168 164 163 171 175 177 177 177 179 176 180 188 185 177 163 158 161 160 155 146 142 142 144 144 144 143 140 137 125 129 143 143 151 152 145 131 123 122 123 126 125 128 126 122 126 128 129 129 127 127 128 125 122 121 117 114 111 110
179 179 177 175 175 174 179 183 184 187 188 191 191 190 190 191 188 184 183 183 184 183 182 180 177 176 172 171 169 165 170 178 180 178 179 182 182 184 188 189 188 179 168 166 166 161 154 150 148 148 145 145 147 157 176 178 180 186 171 170 169 157 140 134 132 131 133 134 138 140 137 136 134 134 133 129 127 127 127 125 123 119 116 113 112
179 180 181 180 179 179 185 190 190 189 189 191 192 192 193 192 189 185 185 185 185 185 183 181 180 177 174 176 175 170 173 179 180 179 179 179 179 180 182 184 186 186 179 172 172 166 160 158 156 153 148 151 166 190 199 199 201 198 171 168 173 164 149 143 140 139 140 140 145 147 141 138 139 138 134 130 129 129 128 126 121 118 118 118 117
181 182 185 186 185 185 189 194 193 191 190 190 191 193 193 192 190 188 187 185 184 183 182 182 182 179 177 181 182 179 178 179 179 179 180 176 176 178 178 178 178 182 181 178 176 170 167 166 162 157 155 166 190 207 205 203 202 194 171 169 172 165 155 150 146 145 141 137 141 140 134 136 139 136 132 132 132 131 129 129 127 125 125 124 122
186 187 191 193 192 191 192 194 192 190 189 188 189 191 193 193 191 190 187 186 185 183 182 183 183 181 182 185 187 187 182 180 179 179 180 177 178 180 180 178 175 175 177 175 173 172 173 170 165 164 168 180 204 225 222 207 199 187 178 180 174 166 159 154 149 147 139 133 136 136 137 143 141 137 137 137 134 132 132 132 131 128 125 123 120
189 191 195 198 197 194 192 191 190 189 188 189 190 191 193 192 192 192 188 189 190 188 187 186 185 186 186 186 190 190 184 182 182 180 181 181 181 182 182 182 177 170 166 162 161 161 160 161 162 168 177 187 206 220 218 206 197 185 182 186 178 169 161 154 150 146 139 133 136 140 143 145 141 139 142 142 138 136 136 134 132 129 125 125 124
191 194 197 199 197 193 190 189 189 189 189 189 190 192 192 191 196 197 191 194 198 197 195 190 189 191 189 184 184 184 182 184 185 183 183 185 185 184 185 188 186 173 162 158 154 147 151 162 167 172 181 190 198 197 193 195 191 180 178 182 177 169 162 154 149 146 141 137 138 142 144 143 139 142 150 152 143 137 137 134 133 132 129 132 131
192 197 199 197 195 191 189 190 191 191 188 188 191 192 191 194 201 201 198 200 205 204 198 195 194 194 193 184 179 180 181 184 187 187 186 188 190 187 189 195 193 180 167 167 164 158 173 180 171 172 175 179 187 185 183 182 174 168 170 175 174 169 162 153 150 150 146 142 140 142 144 146 146 152 158 150 134 132 134 134 136 136 132 129 128
192 195 196 193 191 188 187 191 193 193 191 192 194 192 195 199 201 206 207 206 210 209 199 199 201 198 195 187 181 181 184 188 188 188 188 191 195 192 189 189 189 185 175 169 162 162 175 174 166 171 167 162 172 179 181 175 169 170 168 171 172 167 162 155 154 155 152 148 145 144 144 145 149 154 153 140 132 134 136 136 137 137 133 123 124
190 191 192 190 189 186 188 192 194 196 196 196 194 191 198 202 202 206 209 208 214 215 209 210 211 204 198 192 188 187 187 191 191 189 189 196 200 192 186 178 178 183 175 163 152 158 169 164 163 174 164 154 166 174 178 174 173 175 167 167 170 166 162 160 160 159 157 154 152 151 148 143 144 148 149 147 144 143 142 136 125 124 125 125 131
190 190 190 189 186 184 189 193 196 200 197 192 190 190 195 201 205 203 202 206 212 216 218 220 218 209 202 197 195 195 194 193 193 192 191 196 198 192 188 181 174 175 171 163 159 172 180 168 168 183 169 157 170 172 173 174 171 165 160 165 169 168 167 166 166 164 160 159 159 161 158 151 145 147 152 153 151 149 147 141 125 117 113 113 123
193 193 191 188 183 181 191 197 199 200 192 179 182 189 194 201 207 202 198 205 209 211 215 219 218 210 204 199 197 199 199 197 198 198 195 194 194 191 187 178 171 168 164 164 173 185 186 171 168 177 170 163 168 164 161 166 161 150 154 166 168 169 170 170 173 170 165 165 167 169 167 161 155 156 158 154 153 153 152 153 140 130 121 112 114
195 196 192 187 182 186 198 200 196 194 182 169 177 193 199 203 210 206 201 207 211 212 214 215 213 208 205 200 197 197 197 197 199 200 198 194 188 184 177 170 170 167 160 162 175 184 183 173 164 160 163 168 165 154 149 154 145 137 145 159 166 170 173 175 178 178 176 175 175 177 175 169 166 168 169 164 162 163 165 168 161 155 148 135 129
193 192 189 187 187 192 200 198 187 181 174 171 181 194 199 203 209 208 207 209 208 209 210 210 209 206 205 202 197 194 193 191 190 191 192 188 182 177 171 170 174 173 168 165 170 180 182 179 165 157 166 176 173 162 154 150 140 135 138 146 162 173 173 177 183 183 186 187 185 185 183 178 176 176 177 179 178 179 183 185 182 176 165 163 164
190 187 188 191 190 190 194 193 180 174 175 181 187 188 191 199 204 206 210 208 201 200 202 204 207 207 205 201 198 195 192 188 184 184 186 185 180 175 171 172 176 178 178 173 172 181 186 178 162 159 167 174 175 166 160 155 142 132 132 141 162 176 177 182 188 187 189 194 192 192 193 191 189 186 183 185 186 189 195 196 196 191 182 186 183
187 187 191 195 192 186 186 185 179 177 182 189 193 189 187 193 200 204 210 210 204 202 202 202 204 206 204 201 199 195 191 189 187 184 185 186 180 175 173 173 177 183 187 181 175 179 186 178 158 156 165 167 165 166 166 159 144 127 122 127 138 156 169 182 185 184 187 191 194 198 201 197 194 195 193 190 188 191 199 201 200 200 194 196 189
185 189 195 198 193 187 183 180 176 178 185 191 193 192 191 194 200 203 207 211 211 208 208 206 202 204 205 203 199 195 191 190 192 191 189 188 182 178 178 177 181 189 189 182 178 176 180 180 162 155 162 166 163 166 171 165 150 140 132 120 110 120 138 159 167 175 186 190 195 203 206 203 200 199 197 196 193 189 195 198 198 204 201 194 185
186 191 198 199 195 190 185 180 176 177 187 193 192 194 198 200 199 201 204 210 211 208 209 207 202 201 202 204 201 198 196 195 195 195 192 191 188 184 182 183 186 191 188 180 179 178 178 181 171 160 163 167 163 167 175 176 158 145 133 125 117 109 123 151 157 169 189 194 198 202 202 205 206 201 197 198 200 198 200 202 198 200 198 190 187
186 192 196 198 196 193 189 183 178 180 189 194 196 199 205 206 200 199 205 211 210 206 205 205 203 201 199 202 203 200 200 199 197 196 195 193 192 190 187 187 188 190 192 186 181 180 179 180 174 166 166 165 161 170 182 187 171 154 134 111 118 110 163 162 129 141 183 188 197 204 201 203 203 200 198 195 199 203 205 207 203 197 193 190 190
190 193 195 195 193 193 195 189 182 184 189 193 198 203 207 210 205 199 203 209 208 203 203 205 204 201 200 201 203 202 200 197 196 197 195 194 193 192 190 190 190 190 193 191 186 183 181 180 177 173 171 167 164 175 185 195 190 174 157 141 130 135 198 152 126 121 170 178 184 197 199 200 196 194 198 194 196 199 199 206 206 202 199 196 194
197 196 195 194 192 194 198 195 188 187 189 190 196 202 207 211 207 200 202 204 202 202 204 205 205 203 204 205 203 201 198 193 195 197 195 194 191 189 191 192 192 190 189 190 189 186 181 180 181 180 177 171 168 176 187 200 201 192 184 173 166 206 166 149 142 117 162 176 179 184 190 192 186 185 191 192 193 194 193 201 207 207 208 209 207
205 203 201 197 195 198 199 198 193 190 190 190 193 199 203 207 208 205 206 206 203 206 208 206 207 207 207 208 206 201 197 193 194 194 192 191 189 188 193 193 190 189 185 183 184 183 181 181 182 184 181 173 171 179 190 198 197 201 211 209 248 239 172 161 162 151 144 174 180 182 185 182 179 180 184 184 185 186 186 193 201 207 209 214 217
351 328 240 213 206 209 207 201 196 191 191 191 192 198 201 204 207 206 207 214 214 211 207 206 208 210 209 209 207 201 196 194 193 192 190 189 188 189 193 193 189 185 179 176 176 175 176 178 180 185 186 182 181 184 187 188 190 199 208 217 253 213 174 171 170 154 131 138 159 169 181 179 178 181 183 183 182 182 183 187 194 202 206 211 215
5 358 333 274 239 232 221 208 199 192 191 191 191 194 199 201 202 201 206 222 230 217 207 207 208 210 213 210 206 201 197 196 195 194 192 189 190 193 193 192 188 181 174 174 175 174 176 178 180 184 187 189 192 192 187 185 192 200 198 203 211 173 162 168 167 154 136 144 149 146 167 170 175 183 186 187 188 186 186 192 198 202 208 211 210
344 352 352 333 297 270 239 216 206 198 193 194 191 185 186 194 197 198 205 217 230 227 210 204 204 204 210 207 200 198 198 199 198 196 195 192 193 196 194 191 188 180 174 174 176 179 182 182 182 183 186 193 197 197 192 188 196 203 196 191 185 168 156 152 162 158 144 143 138 142 158 155 162 182 186 183 185 190 193 198 204 207 212 213 212
231 245 300 315 312 302 266 219 204 198 196 195 188 177 175 189 201 202 202 205 216 226 211 197 196 196 202 203 195 195 199 202 201 197 197 197 196 195 193 190 187 182 177 176 178 181 184 185 186 186 189 194 197 197 194 190 194 201 196 193 190 182 178 176 172 166 158 148 135 142 159 158 154 166 178 180 180 188 197 203 207 211 215 215 214